, CO

(GMT )
Mount Werner

Weather History for K3MW - May, 2013

Change the Weather History Date:

Tuesday, May 7, 2013

  Actual Average Record
Temperature  
Mean Temperature 36 °F -  
Max Temperature 41 °F - - ()
Min Temperature 32 °F - - ()
Degree Days  
Heating Degree Days 28    
Moisture  
Dew Point 30 °F    
Average Humidity 81    
Maximum Humidity 100    
Minimum Humidity 45    
Precipitation  
Precipitation 0.00 in - - ()
Sea Level Pressure  
Sea Level Pressure 30.01 in    
Wind  
Wind Speed 7 mph (SW)    
Max Wind Speed 15 mph    
Max Gust Speed 17 mph    
Visibility 5 miles    
Events Fog , Snow , Thunderstorm    
T = Trace of Precipitation, MM = Missing Value Source: NWS Daily Summary

Daily Weather History Graph

Daily Weather History Graph

Search for Another Location

Airport or City:

Trip Planner

Search our weather history database for the weather conditions in past years. The results will help you decide how hot, cold, wet, or windy it might be!

Date:

Astronomy

May. 07, 2013 Rise Set
Actual Time 5:58 AM MDT 8:09 PM MDT
Civil Twilight 5:28 AM MDT 8:39 PM MDT
Nautical Twilight 4:51 AM MDT 9:16 PM MDT
Astronomical Twilight 4:10 AM MDT 9:57 PM MDT
Moon 4:34 AM MDT (5/7) 6:11 PM MDT (5/7)
Length of Visible Light 15h 10m
Length of Day
14h 10m
Waning Crescent, 5% of the Moon is Illuminated
May 7
Waning Crescent
May 9
New
May 17
First Quarter
May 24
Full
May 31
Last Quarter

Hourly Weather History & Observations

Time (MDT) Temp. Windchill Dew Point Humidity Pressure Visibility Wind Dir Wind Speed Gust Speed Precip Events Conditions
12:16 AM 35.6 °F 30.7 °F 32.0 °F 87% 29.99 in 0.2 mi SW 5.8 mph - N/A Fog Fog
12:36 AM 35.6 °F 31.7 °F 32.0 °F 87% 29.99 in 0.2 mi SSW 4.6 mph - N/A Fog Fog
12:56 AM 35.6 °F 32.8 °F 32.0 °F 87% 29.99 in 0.2 mi SW 3.5 mph - N/A Snow Light Snow
1:16 AM 35.6 °F 32.8 °F 32.0 °F 87% 29.99 in 0.2 mi SSW 3.5 mph - N/A Snow Light Snow
1:36 AM 35.6 °F 32.8 °F 32.0 °F 87% 29.98 in 0.2 mi SW 3.5 mph - N/A Snow Light Snow
1:56 AM 35.6 °F 32.8 °F 32.0 °F 87% 29.98 in 0.2 mi SSW 3.5 mph - N/A Snow Light Snow
2:16 AM 33.8 °F 27.7 °F 32.0 °F 93% 29.98 in 0.2 mi SSW 6.9 mph - N/A Snow Snow
2:36 AM 33.8 °F 27.7 °F 32.0 °F 93% 29.98 in 0.2 mi West 6.9 mph - N/A Snow Snow
2:56 AM 33.8 °F 26.4 °F 32.0 °F 93% 29.98 in 0.2 mi South 9.2 mph 17.3 mph N/A Snow Heavy Snow
3:16 AM 32.0 °F 22.5 °F 32.0 °F 100% 29.99 in 0.2 mi SSW 12.7 mph - N/A Snow Snow
3:36 AM 33.8 °F 27.0 °F 32.0 °F 93% 29.99 in 0.2 mi WSW 8.1 mph - N/A Snow Snow
4:16 AM 33.8 °F 23.9 °F 32.0 °F 93% 29.98 in 0.2 mi SW 15.0 mph - N/A Snow Snow
4:36 AM 33.8 °F 24.8 °F 32.0 °F 93% 29.98 in 0.2 mi SW 12.7 mph - N/A Snow Snow
4:56 AM 33.8 °F 24.3 °F 32.0 °F 93% 29.98 in 0.2 mi SW 13.8 mph - N/A Snow Snow
5:16 AM 33.8 °F 24.8 °F 32.0 °F 93% 29.99 in 0.2 mi SW 12.7 mph - N/A Snow Heavy Snow
5:36 AM 33.8 °F 25.8 °F 32.0 °F 93% 29.99 in 0.2 mi SW 10.4 mph - N/A Snow Heavy Snow
5:56 AM 33.8 °F 24.8 °F 32.0 °F 93% 29.99 in 0.2 mi SSW 12.7 mph - N/A Snow Heavy Snow
6:16 AM 33.8 °F 24.3 °F 32.0 °F 93% 29.99 in 0.2 mi SW 13.8 mph - N/A Snow Heavy Snow
6:36 AM 32.0 °F 22.1 °F 32.0 °F 100% 29.99 in 0.2 mi WSW 13.8 mph - N/A Snow Snow
6:56 AM 33.8 °F 25.3 °F 32.0 °F 93% 30.00 in 0.2 mi SW 11.5 mph - N/A Snow Light Snow
7:16 AM 33.8 °F 25.8 °F 32.0 °F 93% 30.01 in 0.2 mi SW 10.4 mph - N/A Snow Heavy Snow
7:36 AM 33.8 °F 25.3 °F 32.0 °F 93% 30.01 in 0.2 mi SW 11.5 mph - N/A Snow Heavy Snow
7:56 AM 33.8 °F 23.9 °F 32.0 °F 93% 30.00 in 0.2 mi WSW 15.0 mph - N/A Snow Snow
8:16 AM 33.8 °F 26.4 °F 32.0 °F 93% 30.01 in 0.2 mi West 9.2 mph 16.1 mph N/A Snow Snow
8:36 AM 33.8 °F 26.4 °F 32.0 °F 93% 30.01 in 0.2 mi WSW 9.2 mph - N/A Fog Fog
8:56 AM 33.8 °F 25.3 °F 32.0 °F 93% 30.01 in 0.2 mi WSW 11.5 mph - N/A Fog Fog
9:16 AM 33.8 °F 25.8 °F 32.0 °F 93% 30.02 in 0.2 mi WSW 10.4 mph - N/A Fog Fog
9:36 AM 33.8 °F 25.8 °F 32.0 °F 93% 30.02 in 0.2 mi SW 10.4 mph - N/A Fog Fog
9:56 AM 33.8 °F 25.8 °F 32.0 °F 93% 30.02 in 0.2 mi SW 10.4 mph - N/A Fog Fog
10:16 AM 33.8 °F 25.8 °F 32.0 °F 93% 30.03 in 0.2 mi WSW 10.4 mph - N/A Fog Fog
10:36 AM - - - N/A% 30.03 in 3.0 mi West 6.9 mph - N/A   Mostly Cloudy
10:56 AM - - - N/A% 30.03 in 0.2 mi WSW 8.1 mph - N/A Fog Fog
11:16 AM - - - N/A% 30.03 in 0.8 mi West 5.8 mph - N/A   Overcast
11:36 AM - - - N/A% 30.03 in 7.0 mi WSW 5.8 mph - N/A Thunderstorm Mostly Cloudy
11:56 AM 35.6 °F 29.9 °F 33.8 °F 93% 30.02 in 10.0 mi WNW 6.9 mph - N/A Thunderstorm Thunderstorm
12:16 PM 35.6 °F 29.9 °F 33.8 °F 93% 30.01 in 10.0 mi WNW 6.9 mph - N/A   Scattered Clouds
12:36 PM 37.4 °F 31.4 °F 33.8 °F 87% 30.01 in 10.0 mi NW 8.1 mph - N/A   Mostly Cloudy
12:56 PM 37.4 °F 31.4 °F 32.0 °F 81% 30.00 in 10.0 mi WNW 8.1 mph - N/A Thunderstorm Scattered Clouds
1:16 PM 37.4 °F 29.8 °F 32.0 °F 81% 30.00 in 10.0 mi WNW 11.5 mph - N/A Thunderstorm Mostly Cloudy
1:36 PM 35.6 °F 32.8 °F 32.0 °F 87% 30.01 in 10.0 mi West 3.5 mph - N/A Thunderstorm Overcast
1:56 PM 35.6 °F - 32.0 °F 87% 30.00 in 10.0 mi Calm Calm - N/A Thunderstorm Overcast
2:16 PM 35.6 °F - 30.2 °F 81% 30.00 in 10.0 mi Calm Calm - N/A Thunderstorm Thunderstorm
2:36 PM 41.0 °F 38.0 °F 26.6 °F 57% 30.00 in 10.0 mi West 4.6 mph - N/A   Mostly Cloudy
2:56 PM 37.4 °F 29.8 °F 30.2 °F 75% 30.01 in 10.0 mi SSW 11.5 mph - N/A Thunderstorm Mostly Cloudy
3:16 PM 35.6 °F 28.6 °F 32.0 °F 87% 30.01 in 1.5 mi WNW 9.2 mph - N/A Snow , Thunderstorm Light Thunderstorms and Snow
3:36 PM 37.4 °F 30.8 °F 28.4 °F 70% 29.99 in 1.8 mi East 9.2 mph - N/A Snow Light Snow
3:56 PM 37.4 °F 32.8 °F 21.2 °F 52% 30.00 in 10.0 mi WNW 5.8 mph - N/A Thunderstorm Scattered Clouds
4:16 PM 37.4 °F 31.4 °F 21.2 °F 52% 30.00 in 10.0 mi West 8.1 mph - N/A   Mostly Cloudy
4:36 PM 37.4 °F 31.4 °F 24.8 °F 60% 30.02 in 10.0 mi SSW 8.1 mph - N/A Thunderstorm Thunderstorm
4:56 PM 37.4 °F 33.8 °F 26.6 °F 65% 30.01 in 10.0 mi SSW 4.6 mph - N/A Thunderstorm Thunderstorm
5:16 PM 37.4 °F 32.8 °F 28.4 °F 70% 30.00 in 10.0 mi East 5.8 mph - N/A   Overcast
5:36 PM 39.2 °F 37.0 °F 26.6 °F 61% 30.00 in 10.0 mi ENE 3.5 mph - N/A   Scattered Clouds
5:56 PM 41.0 °F 38.0 °F 23.0 °F 49% 30.00 in 10.0 mi West 4.6 mph - N/A   Scattered Clouds
6:16 PM 39.2 °F 37.0 °F 24.8 °F 56% 30.00 in 10.0 mi WSW 3.5 mph - N/A   Scattered Clouds
6:36 PM 41.0 °F 38.0 °F 21.2 °F 45% 30.00 in 10.0 mi West 4.6 mph - N/A   Clear
6:56 PM 41.0 °F 38.0 °F 23.0 °F 49% 30.00 in 10.0 mi West 4.6 mph - N/A Thunderstorm Clear
7:16 PM 41.0 °F 38.0 °F 23.0 °F 49% 30.00 in 10.0 mi WSW 4.6 mph - N/A   Clear
7:36 PM 39.2 °F - 23.0 °F 52% 30.01 in 10.0 mi Calm Calm - N/A   Clear
7:56 PM 37.4 °F 33.8 °F 23.0 °F 56% 30.01 in 10.0 mi SW 4.6 mph - N/A   Clear
8:16 PM 37.4 °F 32.8 °F 23.0 °F 56% 30.01 in 10.0 mi SW 5.8 mph - N/A   Clear
8:36 PM 35.6 °F 30.7 °F 28.4 °F 75% 30.01 in 10.0 mi WSW 5.8 mph - N/A   Clear
8:56 PM 35.6 °F 28.0 °F 32.0 °F 87% 30.01 in 10.0 mi South 10.4 mph - N/A   Scattered Clouds
9:16 PM 35.6 °F 27.5 °F 32.0 °F 87% 30.01 in 10.0 mi South 11.5 mph - N/A   Mostly Cloudy
9:36 PM 35.6 °F 29.9 °F 30.2 °F 81% 30.03 in 10.0 mi South 6.9 mph - N/A   Mostly Cloudy
9:56 PM 35.6 °F 29.9 °F 30.2 °F 81% 30.03 in 10.0 mi SE 6.9 mph - N/A   Mostly Cloudy
10:16 PM 33.8 °F 30.8 °F 30.2 °F 87% 30.03 in 10.0 mi SE 3.5 mph - N/A   Overcast
10:36 PM 35.6 °F - 30.2 °F 81% 30.03 in 10.0 mi Calm Calm - N/A Snow Light Snow
10:56 PM 35.6 °F - 30.2 °F 81% 30.03 in 2.0 mi Calm Calm - N/A Snow Light Snow
11:16 PM 35.6 °F 31.7 °F 30.2 °F 81% 30.03 in 10.0 mi East 4.6 mph - N/A   Overcast
11:36 PM 35.6 °F 30.7 °F 28.4 °F 75% 30.03 in 10.0 mi ESE 5.8 mph - N/A   Overcast
11:56 PM 33.8 °F 27.0 °F 30.2 °F 87% 30.03 in 10.0 mi ESE 8.1 mph - N/A   Overcast